Kuiper-00177

operational
NORAD ID: 67766 Int'l Des: 2026-030 Owner: KUIP Country: US Constellation: kuiper
LEOCIRCULAR

About Kuiper-00177

Description loading...

Live Position

Loading 3D Globe...

Upcoming Passes

Altitude History

Altitude vs Time

uPlot chart will show altitude changes over time

Two-Line Element Set

1 67766U 26030C 26103.00002315 -.00027823 00000-0 -39437-2 0 9998
2 67766 51.9001 61.3649 0001542 45.5312 20.3327 14.76501433 5917
Epoch: Apr 13, 2026 • Age: 8 hours

Current Status

Altitude 639.5 km
Velocity 7.54 km/s
Sub-Earth Point 12.51°N, 109.89°E
Launch Date Feb 12, 2026
Age 0.1 years
Type internet

Technical Details

Classification Payload
Mass 490.00 kg
Dry Mass 490.00 kg
Total Mass 490.00 kg
Length 1.80 m
Diameter 0.70 m
Span 5.00 m
Shape Box + 2 pan
Manufacturer KUIP
Bus Type Kuiper
Phase Status In Orbit
Owner/State KUIP/US

Large Constellations

Loading constellations...